Location: Endfield
(51.6667°N, 0.0667°W)
Time: 14:40:05
(UTC+00:00)

BREEZE-M DEB (TANK) - Pass Details

Date: 19 May 2024
Orbit: 295 x 19625 km, 49.3° (Epoch: 17 June)

Event Time Altitude Azimuth Distance (km) Brightness Sun altitude
Rises 22:09:18 0° 246° (WSW) 2,543 6.2 -14.5°
Reaches altitude 10° 22:10:36 10° 242° (WSW) 1,951 5.6 -14.6°
Maximum altitude 22:14:27 67° 159° (SSE) 1,193 4.2 -14.9°
Drops below altitude 10° 22:30:43 10° 82° (E) 7,600 8.4 -15.9°
Sets 22:43:08 0° 83° (E) 11,757 9.4 -16.5°
